Flag for U.S.A. Weather past 2 weeks in Philadelphia, Pennsylvania, U.S.A.

Now
56 °F

Passing clouds.


Feels Like: 53 °F
Forecast: 35 / 53 °F
Wind: 12 mph from Northwest

Location: Philadelphia International Airport

Current Time: Apr 1, 2015 at 6:58:02 PM

Latest Report: Apr 1, 2015 at 5:54 PM


Visibility: 10 mi

Pressure: 30.13 "Hg

Humidity: 21%

Dew point: 16 °F

Location of PhiladelphiaLocation

Historic Weather in Philadelphia — Graph

°F

Philadelphia temperature yesterday

Maximum temperature yesterday: 58 °F (at 1:54 PM)
Minimum temperature yesterday: 39 °F (at 6:54 AM)
Average temperature yesterday: 46 °F

Past Weeks' High & Low Weather Summary

 TemperatureHumidityPressure
High66 °F (Mar 26, 5:01 PM)97% (Mar 26, 6:54 AM)30.42 "Hg (Mar 26, 6:54 AM)
Low26 °F (Mar 29, 4:54 AM)16% (Mar 18, 2:54 PM)29.59 "Hg (Mar 26, 7:54 PM)
Average40 °F51%30.08 "Hg
* Reported Mar 17 5:54 PM — Apr 1 5:54 PM, Philadelphia, Weather by CustomWeather, © 2015

Note: Actual official high and low records may vary slightly from our data, if they occured in-between our weather recording intervals... More about our weather records

Advertising

Philadelphia weather history for previous 24 hours

 ConditionsComfort  
Time TempWeatherWind HumidityBarometerVisibility
5:54 PM
Wed, Apr 1
56 °FPassing clouds.12 mph21%30.13 "Hg10 mi
4:54 PM56 °FPassing clouds.15 mph24%30.11 "Hg10 mi
3:54 PM56 °FPassing clouds.10 mph27%30.11 "Hg10 mi
2:54 PM53 °FPassing clouds.10 mph30%30.11 "Hg10 mi
1:54 PM52 °FPassing clouds.14 mph32%30.11 "Hg10 mi
12:54 PM49 °FPassing clouds.13 mph35%30.12 "Hg10 mi
11:54 AM47 °FPassing clouds.10 mph39%30.12 "Hg10 mi
10:54 AM45 °FPassing clouds.10 mph42%30.13 "Hg10 mi
9:54 AM43 °FPassing clouds.10 mph47%30.11 "Hg10 mi
8:54 AM40 °FPassing clouds.10 mph55%30.09 "Hg10 mi
7:54 AM36 °FPassing clouds.3 mph62%30.07 "Hg10 mi
6:54 AM35 °FPassing clouds.9 mph64%30.03 "Hg10 mi
5:54 AM35 °FPassing clouds.8 mph64%29.98 "Hg10 mi
4:54 AM36 °FClear.8 mph64%29.94 "Hg10 mi
3:54 AM36 °FClear.14 mph70%29.92 "Hg10 mi
2:54 AM37 °FClear.14 mph70%29.91 "Hg10 mi
1:54 AM37 °FClear.14 mph76%29.90 "Hg10 mi
12:54 AM38 °FClear.14 mph79%29.89 "Hg10 mi
11:54 PM
Tue, Mar 31
39 °FMostly cloudy.10 mph79%29.87 "Hg10 mi
10:54 PM39 °FMostly cloudy.12 mph82%29.84 "Hg10 mi
9:54 PM40 °FOvercast.17 mph83%29.80 "Hg10 mi
8:54 PM40 °FOvercast.14 mph86%29.77 "Hg10 mi
7:54 PM41 °FLight rain. Overcast.15 mph82%29.76 "Hg6 mi
6:54 PM45 °FMostly cloudy.15 mph63%29.70 "Hg10 mi
Weather by CustomWeather, © 2015

See weather overviewHow to use our weather pages